Location: Unspecified
(35.7250°N, 0.0000°E)
Time: 04:19:30
(UTC+00:00)

Explorer 7 - Pass Details

Date: 19 June 2019
Orbit: 485 x 680 km, 50.3° (Epoch: 21 August)

Event Time Altitude Azimuth Distance (km) Brightness Sun altitude
Rises 11:44:47 0° 289° (WNW) 2,868 10.4 77.2°
Reaches altitude 10° 11:47:56 10° 312° (NW) 2,006 9.7 77.4°
Maximum altitude 11:50:42 15° 349° (N) 1,705 9.4 77.5°
Drops below altitude 10° 11:53:32 10° 26° (NNE) 2,068 9.8 77.6°
Sets 11:56:51 0° 49° (NE) 3,009 10.5 77.7°
